Location: Newark
(42.8481°N, 0.4872°E)
Time: 09:11:42
(UTC+00:00)

A-11 Canister half - Pass Details

Date: 30 October 2020
Orbit: 1516 x 1684 km, 47.2° (Epoch: 04 December)

Event Time Altitude Azimuth Distance (km) Brightness Sun altitude
Rises 21:52:29 0° 268° (W) 4,929 12.0 -52.9°
Reaches altitude 10° 21:55:43 10° 271° (W) 3,932 11.4 -53.4°
Enters shadow 21:59:03 24° 276° (W) 2,945 10.6 -53.8°
